Time,TemperatureF,DewpointF,PressureIn,WindDirection,WindDirectionDegrees,WindSpeedMPH,WindSpeedGustMPH,Humidity,HourlyPrecipIn,Conditions,Clouds,dailyrainin,SoftwareType,DateUTC
2013-02-02 00:00:00,47.8,15.5,30.30,NNW,346,4.3,9.7,27,0.00,,CLR,0.00,VWS V13.01,2013-02-02 05:00:00,
2013-02-02 00:01:00,47.8,15.5,30.30,NNE,22,5.4,9.7,27,0.00,,BKN250,0.00,VWS V13.01,2013-02-02 05:01:00,
2013-02-02 00:04:00,47.8,15.5,30.30,NNW,344,6.4,7.5,27,0.00,,BKN250,0.00,VWS V13.01,2013-02-02 05:04:00,
2013-02-02 00:09:00,47.7,15.3,30.30,NNE,13,0.0,6.3,27,0.00,,BKN250,0.00,VWS V13.01,2013-02-02 05:09:00,
2013-02-02 00:14:00,47.7,15.3,30.27,North,351,4.3,12.2,27,0.00,,BKN250,0.00,VWS V13.01,2013-02-02 05:14:00,
2013-02-02 00:19:00,47.7,15.3,30.27,North,351,0.0,0.0,27,0.00,,BKN250,0.00,VWS V13.01,2013-02-02 05:19:00,
2013-02-02 00:25:00,47.3,15.0,30.27,NNW,347,0.0,0.0,27,0.00,,BKN250,0.00,VWS V13.01,2013-02-02 05:25:00,
2013-02-02 00:30:00,47.1,15.7,30.30,NNW,346,6.4,7.5,28,0.00,,BKN250,0.00,VWS V13.01,2013-02-02 05:30:00,
2013-02-02 00:35:00,46.8,15.4,30.30,North,351,3.2,8.8,28,0.00,,BKN250,0.00,VWS V13.01,2013-02-02 05:35:00,
2013-02-02 00:40:00,46.6,15.2,30.30,North,9,3.2,8.8,28,0.00,,BKN250,0.00,VWS V13.01,2013-02-02 05:40:00,
2013-02-02 00:46:00,46.4,15.1,30.27,NNW,347,0.0,7.5,28,0.00,,BKN250,0.00,VWS V13.01,2013-02-02 05:46:00,
2013-02-02 00:51:00,46.2,14.9,30.27,North,10,5.4,8.8,28,0.00,,BKN250,0.00,VWS V13.01,2013-02-02 05:51:00,
2013-02-02 00:56:00,46.0,14.8,30.30,North,351,7.5,8.8,28,0.00,,BKN250,0.00,VWS V13.01,2013-02-02 05:56:00,
2013-02-02 01:01:00,46.0,14.8,30.30,North,351,0.0,6.3,28,0.00,,BKN250,0.00,VWS V13.01,2013-02-02 06:01:00,
2013-02-02 01:06:00,46.0,14.8,30.30,North,351,0.0,7.5,28,0.00,,FEW250,0.00,VWS V13.01,2013-02-02 06:06:00,
2013-02-02 01:12:00,46.0,14.8,30.27,North,351,5.4,9.7,28,0.00,,FEW250,0.00,VWS V13.01,2013-02-02 06:12:00,
2013-02-02 01:17:00,46.0,14.8,30.27,NNE,23,0.0,0.0,28,0.00,,FEW250,0.00,VWS V13.01,2013-02-02 06:17:00,
2013-02-02 01:22:00,46.0,14.8,30.27,NNE,23,0.0,7.5,28,0.00,,FEW250,0.00,VWS V13.01,2013-02-02 06:22:00,
2013-02-02 01:27:00,46.0,14.8,30.30,North,1,4.3,9.7,28,0.00,,FEW250,0.00,VWS V13.01,2013-02-02 06:27:00,
2013-02-02 01:32:00,45.9,14.6,30.30,North,1,0.0,0.0,28,0.00,,FEW250,0.00,VWS V13.01,2013-02-02 06:32:00,
2013-02-02 01:37:00,45.7,14.5,30.30,North,1,5.4,6.3,28,0.00,,FEW250,0.00,VWS V13.01,2013-02-02 06:37:00,
2013-02-02 01:42:00,45.7,14.5,30.27,North,1,0.0,0.0,28,0.00,,FEW250,0.00,VWS V13.01,2013-02-02 06:42:00,
2013-02-02 01:47:00,45.5,14.3,30.27,North,1,0.0,7.5,28,0.00,,FEW250,0.00,VWS V13.01,2013-02-02 06:47:00,
2013-02-02 01:52:00,45.3,14.9,30.27,North,1,0.0,0.0,29,0.00,,FEW250,0.00,VWS V13.01,2013-02-02 06:52:00,
2013-02-02 01:57:00,45.1,14.8,30.27,North,1,0.0,0.0,29,0.00,,FEW250,0.00,VWS V13.01,2013-02-02 06:57:00,
2013-02-02 02:02:00,45.0,14.6,30.27,North,1,0.0,0.0,29,0.00,,FEW250,0.00,VWS V13.01,2013-02-02 07:02:00,
2013-02-02 02:07:00,44.6,14.3,30.27,North,1,0.0,5.0,29,0.00,,FEW250,0.00,VWS V13.01,2013-02-02 07:07:00,
2013-02-02 02:12:00,44.4,14.2,30.27,North,1,0.0,0.0,29,0.00,,FEW250,0.00,VWS V13.01,2013-02-02 07:12:00,
2013-02-02 02:17:00,44.4,14.2,30.27,North,1,0.0,0.0,29,0.00,,FEW250,0.00,VWS V13.01,2013-02-02 07:17:00,
2013-02-02 02:22:00,44.1,13.9,30.27,North,1,0.0,0.0,29,0.00,,FEW250,0.00,VWS V13.01,2013-02-02 07:22:00,
2013-02-02 02:27:00,44.2,14.0,30.27,North,1,0.0,0.0,29,0.00,,FEW250,0.00,VWS V13.01,2013-02-02 07:27:00,
2013-02-02 02:33:00,44.2,14.0,30.27,North,1,0.0,0.0,29,0.00,,FEW250,0.00,VWS V13.01,2013-02-02 07:33:00,
2013-02-02 02:38:00,44.2,14.8,30.27,North,1,0.0,0.0,30,0.00,,FEW250,0.00,VWS V13.01,2013-02-02 07:38:00,
2013-02-02 02:43:00,43.9,14.5,30.27,North,1,0.0,0.0,30,0.00,,FEW250,0.00,VWS V13.01,2013-02-02 07:43:00,
2013-02-02 02:48:00,43.9,14.5,30.27,North,1,0.0,0.0,30,0.00,,FEW250,0.00,VWS V13.01,2013-02-02 07:48:00,
2013-02-02 02:53:00,43.5,14.9,30.27,North,1,0.0,0.0,31,0.00,,FEW250,0.00,VWS V13.01,2013-02-02 07:53:00,
2013-02-02 02:59:00,43.0,14.4,30.27,North,1,0.0,0.0,31,0.00,,FEW250,0.00,VWS V13.01,2013-02-02 07:59:00,
2013-02-02 03:06:00,42.8,14.3,30.27,North,1,0.0,0.0,31,0.00,,FEW250,0.00,VWS V13.01,2013-02-02 08:06:00,
2013-02-02 03:11:00,42.6,14.1,30.27,North,1,0.0,0.0,31,0.00,,FEW250,0.00,VWS V13.01,2013-02-02 08:11:00,
2013-02-02 03:16:00,42.4,14.0,30.27,North,1,0.0,0.0,31,0.00,,FEW250,0.00,VWS V13.01,2013-02-02 08:16:00,
2013-02-02 03:21:00,42.4,14.0,30.27,North,1,0.0,0.0,31,0.00,,FEW250,0.00,VWS V13.01,2013-02-02 08:21:00,
2013-02-02 03:26:00,42.4,14.0,30.27,North,1,0.0,0.0,31,0.00,,FEW250,0.00,VWS V13.01,2013-02-02 08:26:00,
2013-02-02 03:31:00,42.3,13.1,30.27,North,1,0.0,5.6,30,0.00,,FEW250,0.00,VWS V13.01,2013-02-02 08:31:00,
2013-02-02 03:37:00,42.3,13.1,30.27,North,351,4.3,6.9,30,0.00,,FEW250,0.00,VWS V13.01,2013-02-02 08:37:00,
2013-02-02 03:42:00,42.3,13.1,30.27,North,351,0.0,0.0,30,0.00,,FEW250,0.00,VWS V13.01,2013-02-02 08:42:00,
2013-02-02 03:47:00,42.1,12.9,30.27,North,351,0.0,0.0,30,0.00,,FEW250,0.00,VWS V13.01,2013-02-02 08:47:00,
2013-02-02 03:52:00,42.1,12.9,30.27,NW,321,0.0,0.0,30,0.00,,FEW250,0.00,VWS V13.01,2013-02-02 08:52:00,
2013-02-02 03:57:00,41.9,12.7,30.27,NNW,332,0.0,6.3,30,0.00,,FEW250,0.00,VWS V13.01,2013-02-02 08:57:00,
2013-02-02 04:03:00,41.9,13.5,30.27,NNW,333,4.3,7.5,31,0.00,,CLR,0.00,VWS V13.01,2013-02-02 09:03:00,
2013-02-02 04:08:00,41.7,13.3,30.27,NNW,330,5.4,8.1,31,0.00,,CLR,0.00,VWS V13.01,2013-02-02 09:08:00,
2013-02-02 04:13:00,41.9,14.2,30.27,NNW,329,0.0,0.0,32,0.00,,CLR,0.00,VWS V13.01,2013-02-02 09:13:00,
2013-02-02 04:19:00,41.7,14.8,30.27,NNW,329,5.4,6.3,33,0.00,,CLR,0.00,VWS V13.01,2013-02-02 09:19:00,
2013-02-02 04:25:00,41.7,14.8,30.27,NNW,329,4.3,6.3,33,0.00,,CLR,0.00,VWS V13.01,2013-02-02 09:25:00,
2013-02-02 04:30:00,41.5,14.6,30.27,NNW,340,0.0,3.8,33,0.00,,CLR,0.00,VWS V13.01,2013-02-02 09:30:00,
2013-02-02 04:35:00,41.5,14.6,30.27,NNW,332,0.0,6.3,33,0.00,,CLR,0.00,VWS V13.01,2013-02-02 09:35:00,
2013-02-02 04:40:00,41.5,14.6,30.27,NNW,333,0.0,0.0,33,0.00,,CLR,0.00,VWS V13.01,2013-02-02 09:40:00,
2013-02-02 04:45:00,41.5,15.3,30.27,NNW,333,0.0,6.3,34,0.00,,CLR,0.00,VWS V13.01,2013-02-02 09:45:00,
2013-02-02 04:50:00,41.4,15.1,30.27,NNW,333,0.0,0.0,34,0.00,,CLR,0.00,VWS V13.01,2013-02-02 09:50:00,
2013-02-02 04:55:00,41.2,15.6,30.27,NNW,333,0.0,0.0,35,0.00,,CLR,0.00,VWS V13.01,2013-02-02 09:55:00,
2013-02-02 05:00:00,41.2,16.9,30.30,NNW,334,5.4,6.3,37,0.00,,CLR,0.00,VWS V13.01,2013-02-02 10:00:00,
2013-02-02 05:05:00,41.2,16.9,30.30,NNW,340,0.0,0.0,37,0.00,,CLR,0.00,VWS V13.01,2013-02-02 10:05:00,
2013-02-02 05:10:00,41.2,16.9,30.30,NNW,340,0.0,7.5,37,0.00,,CLR,0.00,VWS V13.01,2013-02-02 10:10:00,
2013-02-02 05:15:00,41.0,16.7,30.27,NNW,340,0.0,0.0,37,0.00,,CLR,0.00,VWS V13.01,2013-02-02 10:15:00,
2013-02-02 05:20:00,41.0,17.4,30.27,NNW,340,0.0,0.0,38,0.00,,CLR,0.00,VWS V13.01,2013-02-02 10:20:00,
2013-02-02 05:25:00,40.8,17.8,30.27,NNW,340,0.0,0.0,39,0.00,,CLR,0.00,VWS V13.01,2013-02-02 10:25:00,
2013-02-02 05:30:00,40.8,17.8,30.27,NNW,340,0.0,0.0,39,0.00,,CLR,0.00,VWS V13.01,2013-02-02 10:30:00,
2013-02-02 05:35:00,40.6,17.6,30.27,NNW,340,0.0,0.0,39,0.00,,CLR,0.00,VWS V13.01,2013-02-02 10:35:00,
2013-02-02 05:40:00,40.6,18.2,30.27,NNW,340,0.0,0.0,40,0.00,,CLR,0.00,VWS V13.01,2013-02-02 10:40:00,
2013-02-02 05:45:00,40.6,18.2,30.30,NNW,340,0.0,0.0,40,0.00,,CLR,0.00,VWS V13.01,2013-02-02 10:45:00,
2013-02-02 05:50:00,40.8,18.4,30.30,NNW,340,0.0,0.0,40,0.00,,CLR,0.00,VWS V13.01,2013-02-02 10:50:00,
2013-02-02 05:55:00,41.4,18.9,30.30,NNW,340,0.0,0.0,40,0.00,,CLR,0.00,VWS V13.01,2013-02-02 10:55:00,
2013-02-02 06:00:00,41.0,19.1,30.30,NNW,340,0.0,0.0,41,0.00,,CLR,0.00,VWS V13.01,2013-02-02 11:00:00,
2013-02-02 06:05:00,40.6,18.2,30.30,NNW,340,0.0,0.0,40,0.00,,CLR,0.00,VWS V13.01,2013-02-02 11:05:00,
2013-02-02 06:10:00,40.5,18.6,30.30,NNW,340,0.0,0.0,41,0.00,,CLR,0.00,VWS V13.01,2013-02-02 11:10:00,
2013-02-02 06:15:00,40.5,18.6,30.30,NNW,340,0.0,0.0,41,0.00,,CLR,0.00,VWS V13.01,2013-02-02 11:15:00,
2013-02-02 06:21:00,41.2,19.3,30.30,NNW,340,0.0,0.0,41,0.00,,CLR,0.00,VWS V13.01,2013-02-02 11:21:00,
2013-02-02 06:26:00,41.2,19.9,30.30,NNW,340,0.0,0.0,42,0.00,,CLR,0.00,VWS V13.01,2013-02-02 11:26:00,
2013-02-02 06:31:00,41.2,19.9,30.30,NNW,340,0.0,0.0,42,0.00,,CLR,0.00,VWS V13.01,2013-02-02 11:31:00,
2013-02-02 06:36:00,41.2,19.9,30.30,NNW,340,0.0,0.0,42,0.00,,CLR,0.00,VWS V13.01,2013-02-02 11:36:00,
2013-02-02 06:41:00,41.2,19.9,30.30,NNW,340,0.0,0.0,42,0.00,,CLR,0.00,VWS V13.01,2013-02-02 11:41:00,
2013-02-02 06:46:00,41.0,19.7,30.30,NNW,340,0.0,0.0,42,0.00,,CLR,0.00,VWS V13.01,2013-02-02 11:46:00,
2013-02-02 06:51:00,40.6,20.5,30.30,NNW,340,0.0,0.0,44,0.00,,CLR,0.00,VWS V13.01,2013-02-02 11:51:00,
2013-02-02 06:56:00,39.7,20.1,30.30,NNW,340,0.0,0.0,45,0.00,,CLR,0.00,VWS V13.01,2013-02-02 11:56:00,
2013-02-02 07:01:00,39.7,20.1,30.30,NNW,340,0.0,0.0,45,0.00,,FEW250,0.00,VWS V13.01,2013-02-02 12:01:00,
2013-02-02 07:06:00,39.4,20.8,30.30,NNW,340,0.0,0.0,47,0.00,,FEW250,0.00,VWS V13.01,2013-02-02 12:06:00,
2013-02-02 07:11:00,39.0,20.0,30.30,NNW,340,0.0,0.0,46,0.00,,FEW250,0.00,VWS V13.01,2013-02-02 12:11:00,
2013-02-02 07:16:00,38.7,19.7,30.30,NNW,340,0.0,0.0,46,0.00,,FEW250,0.00,VWS V13.01,2013-02-02 12:16:00,
2013-02-02 07:21:00,39.2,20.2,30.30,NNW,340,0.0,0.0,46,0.00,,FEW250,0.00,VWS V13.01,2013-02-02 12:21:00,
2013-02-02 07:26:00,39.2,20.2,30.30,NNW,340,0.0,0.0,46,0.00,,FEW250,0.00,VWS V13.01,2013-02-02 12:26:00,
2013-02-02 07:31:00,39.2,19.7,30.30,NNW,340,0.0,0.0,45,0.00,,FEW250,0.00,VWS V13.01,2013-02-02 12:31:00,
2013-02-02 07:36:00,39.2,19.7,30.30,NNW,340,0.0,0.0,45,0.00,,FEW250,0.00,VWS V13.01,2013-02-02 12:36:00,
2013-02-02 07:41:00,39.6,20.0,30.30,NNW,340,0.0,0.0,45,0.00,,FEW250,0.00,VWS V13.01,2013-02-02 12:41:00,
2013-02-02 07:46:00,39.6,20.0,30.30,NNW,340,0.0,0.0,45,0.00,,FEW250,0.00,VWS V13.01,2013-02-02 12:46:00,
2013-02-02 07:51:00,39.7,20.1,30.30,NNW,340,0.0,0.0,45,0.00,,FEW250,0.00,VWS V13.01,2013-02-02 12:51:00,
2013-02-02 07:56:00,39.4,19.3,30.30,NNW,340,0.0,0.0,44,0.00,,FEW250,0.00,VWS V13.01,2013-02-02 12:56:00,
2013-02-02 08:01:00,39.2,19.7,30.30,NNW,340,0.0,0.0,45,0.00,,CLR,0.00,VWS V13.01,2013-02-02 13:01:00,
2013-02-02 08:07:00,39.4,19.8,30.30,NNW,340,0.0,0.0,45,0.00,,CLR,0.00,VWS V13.01,2013-02-02 13:07:00,
2013-02-02 08:12:00,39.4,20.3,30.30,NNW,340,0.0,0.0,46,0.00,,CLR,0.00,VWS V13.01,2013-02-02 13:12:00,
2013-02-02 08:17:00,39.4,20.3,30.30,NNW,340,0.0,0.0,46,0.00,,CLR,0.00,VWS V13.01,2013-02-02 13:17:00,
2013-02-02 08:22:00,39.9,21.8,30.30,NNW,340,0.0,0.0,48,0.00,,CLR,0.00,VWS V13.01,2013-02-02 13:22:00,
2013-02-02 08:27:00,39.9,22.3,30.30,NNW,340,0.0,0.0,49,0.00,,CLR,0.00,VWS V13.01,2013-02-02 13:27:00,
2013-02-02 08:32:00,40.5,22.3,30.30,NNW,340,0.0,0.0,48,0.00,,CLR,0.00,VWS V13.01,2013-02-02 13:32:00,
2013-02-02 08:37:00,40.8,22.7,30.30,NNW,340,0.0,0.0,48,0.00,,CLR,0.00,VWS V13.01,2013-02-02 13:37:00,
2013-02-02 08:43:00,41.2,24.0,30.30,NNW,340,0.0,0.0,50,0.00,,CLR,0.00,VWS V13.01,2013-02-02 13:43:00,
2013-02-02 08:48:00,41.7,24.0,30.30,NNW,340,0.0,0.0,49,0.00,,CLR,0.00,VWS V13.01,2013-02-02 13:48:00,
2013-02-02 08:53:00,42.3,24.5,30.30,NNW,341,0.0,0.0,49,0.00,,CLR,0.00,VWS V13.01,2013-02-02 13:53:00,
2013-02-02 08:58:00,42.8,24.0,30.30,NNW,341,0.0,0.0,47,0.00,,CLR,0.00,VWS V13.01,2013-02-02 13:58:00,
2013-02-02 09:03:00,43.3,24.0,30.30,NNW,341,4.3,5.6,46,0.00,,CLR,0.00,VWS V13.01,2013-02-02 14:03:00,
2013-02-02 09:08:00,43.7,24.8,30.30,NNW,341,0.0,0.0,47,0.00,,CLR,0.00,VWS V13.01,2013-02-02 14:08:00,
2013-02-02 09:13:00,44.2,24.3,30.30,NNW,341,0.0,0.0,45,0.00,,CLR,0.00,VWS V13.01,2013-02-02 14:13:00,
2013-02-02 09:18:00,44.8,24.8,30.30,NNW,341,0.0,0.0,45,0.00,,CLR,0.00,VWS V13.01,2013-02-02 14:18:00,
2013-02-02 09:23:00,45.3,24.7,30.30,NNW,341,0.0,0.0,44,0.00,,CLR,0.00,VWS V13.01,2013-02-02 14:23:00,
2013-02-02 09:28:00,45.9,25.2,30.30,NNW,341,0.0,0.0,44,0.00,,CLR,0.00,VWS V13.01,2013-02-02 14:28:00,
2013-02-02 09:33:00,46.4,25.1,30.30,NNW,341,0.0,0.0,43,0.00,,CLR,0.00,VWS V13.01,2013-02-02 14:33:00,
2013-02-02 09:38:00,47.1,25.2,30.30,NNW,341,0.0,0.0,42,0.00,,CLR,0.00,VWS V13.01,2013-02-02 14:38:00,
2013-02-02 09:43:00,47.7,26.3,30.30,NNW,341,0.0,0.0,43,0.00,,CLR,0.00,VWS V13.01,2013-02-02 14:43:00,
2013-02-02 09:48:00,48.2,26.2,30.30,NNW,341,0.0,0.0,42,0.00,,CLR,0.00,VWS V13.01,2013-02-02 14:48:00,
2013-02-02 09:53:00,48.7,26.1,30.30,NNW,344,0.0,0.0,41,0.00,,CLR,0.00,VWS V13.01,2013-02-02 14:53:00,
2013-02-02 09:58:00,49.3,26.0,30.30,NNW,346,0.0,0.0,40,0.00,,CLR,0.00,VWS V13.01,2013-02-02 14:58:00,
2013-02-02 10:03:00,49.8,26.5,30.30,ENE,77,3.8,4.4,40,0.00,,CLR,0.00,VWS V13.01,2013-02-02 15:03:00,
2013-02-02 10:08:00,50.0,26.0,30.30,ENE,77,0.0,0.0,39,0.00,,CLR,0.00,VWS V13.01,2013-02-02 15:08:00,
2013-02-02 10:13:00,50.5,27.1,30.30,East,81,4.3,5.0,40,0.00,,CLR,0.00,VWS V13.01,2013-02-02 15:13:00,
2013-02-02 10:19:00,51.1,28.2,30.30,NNE,17,3.8,5.0,41,0.00,,CLR,0.00,VWS V13.01,2013-02-02 15:19:00,
2013-02-02 10:24:00,51.4,27.9,30.30,North,5,3.8,5.0,40,0.00,,CLR,0.00,VWS V13.01,2013-02-02 15:24:00,
2013-02-02 10:29:00,51.6,27.5,30.30,NNE,28,3.2,8.8,39,0.00,,CLR,0.00,VWS V13.01,2013-02-02 15:29:00,
2013-02-02 10:35:00,51.6,28.1,30.30,NE,38,0.0,5.0,40,0.00,,CLR,0.00,VWS V13.01,2013-02-02 15:35:00,
2013-02-02 10:40:00,52.2,28.6,30.30,ESE,102,3.2,5.0,40,0.00,,CLR,0.00,VWS V13.01,2013-02-02 15:40:00,
2013-02-02 10:45:00,52.7,29.1,30.30,ESE,102,0.0,5.0,40,0.00,,CLR,0.00,VWS V13.01,2013-02-02 15:45:00,
2013-02-02 10:50:00,53.2,28.3,30.30,ESE,102,0.0,0.0,38,0.00,,CLR,0.00,VWS V13.01,2013-02-02 15:50:00,
2013-02-02 10:55:00,53.8,28.1,30.30,NNE,22,0.0,4.4,37,0.00,,CLR,0.00,VWS V13.01,2013-02-02 15:55:00,
2013-02-02 11:00:00,53.8,28.1,30.30,East,87,4.8,6.9,37,0.00,,CLR,0.00,VWS V13.01,2013-02-02 16:00:00,
2013-02-02 11:05:00,54.1,28.5,30.30,East,87,4.3,5.0,37,0.00,,FEW010,0.00,VWS V13.01,2013-02-02 16:05:00,
2013-02-02 11:10:00,54.7,28.9,30.30,East,87,4.3,5.6,37,0.00,,FEW010,0.00,VWS V13.01,2013-02-02 16:10:00,
2013-02-02 11:15:00,54.9,29.1,30.30,East,91,0.0,6.3,37,0.00,,FEW010,0.00,VWS V13.01,2013-02-02 16:15:00,
2013-02-02 11:20:00,55.6,29.7,30.30,East,91,0.0,0.0,37,0.00,,FEW010,0.00,VWS V13.01,2013-02-02 16:20:00,
2013-02-02 11:25:00,55.6,29.1,30.30,East,91,3.8,5.0,36,0.00,,FEW010,0.00,VWS V13.01,2013-02-02 16:25:00,
2013-02-02 11:30:00,55.8,29.2,30.27,SSE,147,0.0,4.4,36,0.00,,FEW010,0.00,VWS V13.01,2013-02-02 16:30:00,
2013-02-02 11:35:00,55.8,29.2,30.27,NNE,17,0.0,5.6,36,0.00,,FEW010,0.00,VWS V13.01,2013-02-02 16:35:00,
2013-02-02 11:40:00,55.8,29.2,30.27,East,87,0.0,4.4,36,0.00,,FEW010,0.00,VWS V13.01,2013-02-02 16:40:00,
2013-02-02 11:45:00,56.3,29.7,30.27,East,87,0.0,0.0,36,0.00,,FEW010,0.00,VWS V13.01,2013-02-02 16:45:00,
2013-02-02 11:50:00,56.5,29.2,30.27,East,87,0.0,0.0,35,0.00,,FEW010,0.00,VWS V13.01,2013-02-02 16:50:00,
2013-02-02 11:55:00,56.7,28.6,30.27,NE,55,0.0,0.0,34,0.00,,FEW010,0.00,VWS V13.01,2013-02-02 16:55:00,
2013-02-02 12:00:00,56.8,28.8,30.27,NE,39,0.0,5.6,34,0.00,,FEW010,0.00,VWS V13.01,2013-02-02 17:00:00,
2013-02-02 12:05:00,56.8,29.5,30.27,NE,34,3.8,6.3,35,0.00,,FEW010,0.00,VWS V13.01,2013-02-02 17:05:00,
2013-02-02 12:10:00,56.8,29.5,30.27,ESE,108,0.0,5.0,35,0.00,,FEW010,0.00,VWS V13.01,2013-02-02 17:10:00,
2013-02-02 12:15:00,57.0,30.4,30.24,SE,129,0.0,0.0,36,0.00,,FEW010,0.00,VWS V13.01,2013-02-02 17:15:00,
2013-02-02 12:20:00,57.2,30.5,30.24,ENE,59,0.0,4.4,36,0.00,,FEW010,0.00,VWS V13.01,2013-02-02 17:20:00,
2013-02-02 12:25:00,57.6,30.8,30.24,South,191,0.0,5.0,36,0.00,,FEW010,0.00,VWS V13.01,2013-02-02 17:25:00,
2013-02-02 12:31:00,57.6,30.1,30.24,NE,51,4.3,6.9,35,0.00,,FEW010,0.00,VWS V13.01,2013-02-02 17:31:00,
2013-02-02 12:36:00,57.4,30.0,30.24,SE,134,3.2,3.8,35,0.00,,FEW010,0.00,VWS V13.01,2013-02-02 17:36:00,
2013-02-02 12:41:00,57.6,30.1,30.24,ENE,61,0.0,3.8,35,0.00,,FEW010,0.00,VWS V13.01,2013-02-02 17:41:00,
2013-02-02 12:46:00,57.4,29.3,30.24,NNE,31,4.3,5.6,34,0.00,,FEW010,0.00,VWS V13.01,2013-02-02 17:46:00,
2013-02-02 12:51:00,57.6,30.8,30.24,SSE,148,4.3,6.3,36,0.00,,FEW010,0.00,VWS V13.01,2013-02-02 17:51:00,
2013-02-02 12:56:00,57.9,30.5,30.24,SE,141,0.0,4.4,35,0.00,,FEW010,0.00,VWS V13.01,2013-02-02 17:56:00,
2013-02-02 13:01:00,58.1,30.6,30.24,SE,142,0.0,0.0,35,0.00,,FEW010,0.00,VWS V13.01,2013-02-02 18:01:00,
2013-02-02 13:06:00,58.3,29.3,30.24,NE,49,0.0,5.6,33,0.00,,FEW010,0.00,VWS V13.01,2013-02-02 18:06:00,
2013-02-02 13:11:00,58.5,28.0,30.21,East,99,0.0,4.4,31,0.00,,FEW010,0.00,VWS V13.01,2013-02-02 18:11:00,
2013-02-02 13:16:00,58.6,28.9,30.21,East,99,3.2,4.4,32,0.00,,FEW010,0.00,VWS V13.01,2013-02-02 18:16:00,
2013-02-02 13:22:00,58.3,27.0,30.21,NE,54,4.3,5.6,30,0.00,,FEW010,0.00,VWS V13.01,2013-02-02 18:22:00,
2013-02-02 13:27:00,58.3,27.0,30.21,NNW,346,4.8,5.6,30,0.00,,FEW010,0.00,VWS V13.01,2013-02-02 18:27:00,
2013-02-02 13:32:00,58.3,27.0,30.21,ENE,71,3.8,5.0,30,0.00,,FEW010,0.00,VWS V13.01,2013-02-02 18:32:00,
2013-02-02 13:38:00,58.1,27.6,30.21,NE,51,0.0,5.6,31,0.00,,FEW010,0.00,VWS V13.01,2013-02-02 18:38:00,
2013-02-02 13:43:00,58.3,27.0,30.21,NE,43,3.2,6.3,30,0.00,,FEW010,0.00,VWS V13.01,2013-02-02 18:43:00,
2013-02-02 13:48:00,57.9,31.1,30.21,NE,34,0.0,6.3,36,0.00,,FEW010,0.00,VWS V13.01,2013-02-02 18:48:00,
2013-02-02 13:53:00,57.7,31.7,30.21,NE,46,0.0,5.6,37,0.00,,FEW010,0.00,VWS V13.01,2013-02-02 18:53:00,
2013-02-02 13:58:00,57.6,31.5,30.18,NE,50,0.0,0.0,37,0.00,,FEW010,0.00,VWS V13.01,2013-02-02 18:58:00,
2013-02-02 14:03:00,57.4,30.7,30.18,ESE,114,0.0,4.4,36,0.00,,FEW060,0.00,VWS V13.01,2013-02-02 19:03:00,
2013-02-02 14:08:00,57.2,30.5,30.18,NNE,18,4.8,6.3,36,0.00,,FEW060,0.00,VWS V13.01,2013-02-02 19:08:00,
2013-02-02 14:13:00,57.2,31.2,30.18,NE,42,4.8,6.3,37,0.00,,FEW060,0.00,VWS V13.01,2013-02-02 19:13:00,
2013-02-02 14:18:00,57.0,30.4,30.18,SSE,153,0.0,3.8,36,0.00,,FEW060,0.00,VWS V13.01,2013-02-02 19:18:00,
2013-02-02 14:23:00,57.0,30.4,30.18,SE,126,0.0,4.4,36,0.00,,FEW060,0.00,VWS V13.01,2013-02-02 19:23:00,
2013-02-02 14:28:00,57.0,30.4,30.18,SE,143,0.0,0.0,36,0.00,,FEW060,0.00,VWS V13.01,2013-02-02 19:28:00,
2013-02-02 14:33:00,57.0,30.4,30.18,SE,144,0.0,3.8,36,0.00,,FEW060,0.00,VWS V13.01,2013-02-02 19:33:00,
2013-02-02 14:38:00,57.2,30.5,30.18,NNE,31,4.3,9.7,36,0.00,,FEW060,0.00,VWS V13.01,2013-02-02 19:38:00,
2013-02-02 14:43:00,57.4,30.7,30.18,SE,127,0.0,6.3,36,0.00,,FEW060,0.00,VWS V13.01,2013-02-02 19:43:00,
2013-02-02 14:48:00,57.4,30.7,30.18,NNE,23,0.0,0.0,36,0.00,,FEW060,0.00,VWS V13.01,2013-02-02 19:48:00,
2013-02-02 14:53:00,57.2,30.5,30.18,NNE,22,4.3,5.6,36,0.00,,FEW060,0.00,VWS V13.01,2013-02-02 19:53:00,
2013-02-02 14:58:00,57.2,30.5,30.18,NE,51,7.5,8.8,36,0.00,,FEW060,0.00,VWS V13.01,2013-02-02 19:58:00,
2013-02-02 15:04:00,57.6,30.8,30.18,NE,41,0.0,0.0,36,0.00,,FEW010,0.00,VWS V13.01,2013-02-02 20:04:00,
2013-02-02 15:09:00,57.7,31.0,30.18,SSE,162,0.0,5.0,36,0.00,,FEW010,0.00,VWS V13.01,2013-02-02 20:09:00,
2013-02-02 15:14:00,57.7,31.0,30.15,SSE,162,0.0,0.0,36,0.00,,FEW010,0.00,VWS V13.01,2013-02-02 20:14:00,
2013-02-02 15:19:00,57.9,31.1,30.15,SSE,162,0.0,0.0,36,0.00,,FEW010,0.00,VWS V13.01,2013-02-02 20:19:00,
2013-02-02 15:24:00,58.1,31.3,30.15,SSE,162,4.3,7.5,36,0.00,,FEW010,0.00,VWS V13.01,2013-02-02 20:24:00,
2013-02-02 15:29:00,57.9,31.1,30.15,SSE,162,0.0,0.0,36,0.00,,FEW010,0.00,VWS V13.01,2013-02-02 20:29:00,
2013-02-02 15:34:00,58.1,31.3,30.15,SSE,156,0.0,0.0,36,0.00,,FEW010,0.00,VWS V13.01,2013-02-02 20:34:00,
2013-02-02 15:39:00,57.9,31.1,30.15,SSE,156,0.0,0.0,36,0.00,,FEW010,0.00,VWS V13.01,2013-02-02 20:39:00,
2013-02-02 15:44:00,57.4,30.7,30.15,SSE,156,0.0,0.0,36,0.00,,FEW010,0.00,VWS V13.01,2013-02-02 20:44:00,
2013-02-02 15:49:00,57.0,31.0,30.15,SSE,156,0.0,0.0,37,0.00,,FEW010,0.00,VWS V13.01,2013-02-02 20:49:00,
2013-02-02 15:55:00,56.7,30.7,30.15,SSE,147,4.3,6.3,37,0.00,,FEW010,0.00,VWS V13.01,2013-02-02 20:55:00,
2013-02-02 16:00:00,56.7,31.4,30.15,SSE,147,0.0,5.0,38,0.00,,FEW010,0.00,VWS V13.01,2013-02-02 21:00:00,
2013-02-02 16:06:00,56.7,31.4,30.15,SSE,147,0.0,0.0,38,0.00,,FEW250,0.00,VWS V13.01,2013-02-02 21:06:00,
2013-02-02 16:12:00,56.7,31.4,30.15,SSE,147,6.4,7.5,38,0.00,,FEW250,0.00,VWS V13.01,2013-02-02 21:12:00,
2013-02-02 16:18:00,56.3,31.0,30.15,SSE,147,3.2,3.8,38,0.00,,FEW250,0.00,VWS V13.01,2013-02-02 21:18:00,
2013-02-02 16:23:00,56.1,31.5,30.15,SSE,147,3.8,5.6,39,0.00,,FEW250,0.00,VWS V13.01,2013-02-02 21:23:00,
2013-02-02 16:28:00,56.1,31.5,30.15,SSE,147,0.0,0.0,39,0.00,,FEW250,0.00,VWS V13.01,2013-02-02 21:28:00,
2013-02-02 16:33:00,55.9,31.4,30.15,SSE,147,0.0,0.0,39,0.00,,FEW250,0.00,VWS V13.01,2013-02-02 21:33:00,
2013-02-02 16:38:00,55.9,32.0,30.15,SSE,147,0.0,0.0,40,0.00,,FEW250,0.00,VWS V13.01,2013-02-02 21:38:00,
2013-02-02 16:43:00,55.9,32.0,30.15,SSE,147,0.0,0.0,40,0.00,,FEW250,0.00,VWS V13.01,2013-02-02 21:43:00,
2013-02-02 16:48:00,55.8,31.8,30.15,SSE,147,0.0,0.0,40,0.00,,FEW250,0.00,VWS V13.01,2013-02-02 21:48:00,
2013-02-02 16:53:00,55.8,32.4,30.15,SSE,147,0.0,0.0,41,0.00,,FEW250,0.00,VWS V13.01,2013-02-02 21:53:00,
2013-02-02 16:58:00,55.8,32.4,30.15,SSE,147,0.0,0.0,41,0.00,,FEW250,0.00,VWS V13.01,2013-02-02 21:58:00,
2013-02-02 17:03:00,55.6,32.9,30.15,SSE,147,0.0,0.0,42,0.00,,FEW250,0.00,VWS V13.01,2013-02-02 22:03:00,
2013-02-02 17:08:00,55.4,32.7,30.15,SSE,147,0.0,0.0,42,0.00,,FEW250,0.00,VWS V13.01,2013-02-02 22:08:00,
2013-02-02 17:13:00,55.2,32.5,30.12,SSE,147,0.0,0.0,42,0.00,,FEW250,0.00,VWS V13.01,2013-02-02 22:13:00,
2013-02-02 17:18:00,55.0,32.4,30.12,SSE,147,0.0,0.0,42,0.00,,FEW250,0.00,VWS V13.01,2013-02-02 22:18:00,
2013-02-02 17:23:00,54.9,32.8,30.12,SSE,147,0.0,0.0,43,0.00,,FEW250,0.00,VWS V13.01,2013-02-02 22:23:00,
2013-02-02 17:28:00,54.9,32.8,30.12,SSE,147,0.0,0.0,43,0.00,,FEW250,0.00,VWS V13.01,2013-02-02 22:28:00,
2013-02-02 17:33:00,54.5,33.6,30.12,SSE,147,0.0,0.0,45,0.00,,FEW250,0.00,VWS V13.01,2013-02-02 22:33:00,
2013-02-02 17:38:00,54.3,34.0,30.12,SSE,147,0.0,0.0,46,0.00,,FEW250,0.00,VWS V13.01,2013-02-02 22:38:00,
2013-02-02 17:44:00,54.0,33.7,30.12,SSE,147,0.0,0.0,46,0.00,,FEW250,0.00,VWS V13.01,2013-02-02 22:44:00,
2013-02-02 17:49:00,53.6,33.3,30.12,SSE,147,0.0,0.0,46,0.00,,FEW250,0.00,VWS V13.01,2013-02-02 22:49:00,
2013-02-02 17:54:00,53.6,33.9,30.12,SSE,147,0.0,0.0,47,0.00,,FEW250,0.00,VWS V13.01,2013-02-02 22:54:00,
2013-02-02 17:59:00,54.0,34.2,30.12,SSE,147,0.0,0.0,47,0.00,,FEW250,0.00,VWS V13.01,2013-02-02 22:59:00,
2013-02-02 18:04:00,53.6,33.9,30.12,SSE,147,0.0,0.0,47,0.00,,SCT250,0.00,VWS V13.01,2013-02-02 23:04:00,
2013-02-02 18:09:00,53.4,33.7,30.12,SSE,147,0.0,0.0,47,0.00,,SCT250,0.00,VWS V13.01,2013-02-02 23:09:00,
2013-02-02 18:14:00,52.9,33.2,30.12,SSE,147,0.0,0.0,47,0.00,,SCT250,0.00,VWS V13.01,2013-02-02 23:14:00,
2013-02-02 18:19:00,52.2,32.6,30.12,SSE,147,0.0,0.0,47,0.00,,SCT250,0.00,VWS V13.01,2013-02-02 23:19:00,
2013-02-02 18:24:00,51.8,32.8,30.12,SSE,147,0.0,0.0,48,0.00,,SCT250,0.00,VWS V13.01,2013-02-02 23:24:00,
2013-02-02 18:29:00,52.0,32.9,30.12,SSE,147,0.0,0.0,48,0.00,,SCT250,0.00,VWS V13.01,2013-02-02 23:29:00,
2013-02-02 18:35:00,52.0,33.4,30.12,SSE,147,0.0,0.0,49,0.00,,SCT250,0.00,VWS V13.01,2013-02-02 23:35:00,
2013-02-02 18:40:00,52.0,33.4,30.12,SSE,147,0.0,0.0,49,0.00,,SCT250,0.00,VWS V13.01,2013-02-02 23:40:00,
2013-02-02 18:45:00,51.8,33.3,30.12,SSE,147,0.0,0.0,49,0.00,,SCT250,0.00,VWS V13.01,2013-02-02 23:45:00,
2013-02-02 18:50:00,51.6,33.1,30.12,SSE,147,0.0,0.0,49,0.00,,SCT250,0.00,VWS V13.01,2013-02-02 23:50:00,
2013-02-02 18:55:00,51.1,32.6,30.12,SSE,147,0.0,0.0,49,0.00,,SCT250,0.00,VWS V13.01,2013-02-02 23:55:00,
2013-02-02 19:00:00,50.9,32.9,30.12,SSE,147,0.0,0.0,50,0.00,,SCT250,0.00,VWS V13.01,2013-02-03 00:00:00,
2013-02-02 19:05:00,51.1,33.1,30.12,SSE,147,0.0,0.0,50,0.00,,FEW010,0.00,VWS V13.01,2013-02-03 00:05:00,
2013-02-02 19:10:00,51.1,33.1,30.12,SSE,147,0.0,0.0,50,0.00,,FEW010,0.00,VWS V13.01,2013-02-03 00:10:00,
2013-02-02 19:15:00,50.9,32.9,30.12,SSE,147,0.0,0.0,50,0.00,,FEW010,0.00,VWS V13.01,2013-02-03 00:15:00,
2013-02-02 19:20:00,50.7,33.3,30.12,SSE,147,0.0,0.0,51,0.00,,FEW010,0.00,VWS V13.01,2013-02-03 00:20:00,
2013-02-02 19:25:00,50.5,33.1,30.12,SSE,147,0.0,0.0,51,0.00,,FEW010,0.00,VWS V13.01,2013-02-03 00:25:00,
2013-02-02 19:30:00,50.5,33.1,30.12,SSE,147,0.0,0.0,51,0.00,,FEW010,0.00,VWS V13.01,2013-02-03 00:30:00,
2013-02-02 19:35:00,50.4,32.9,30.12,SSE,147,0.0,0.0,51,0.00,,FEW010,0.00,VWS V13.01,2013-02-03 00:35:00,
2013-02-02 19:40:00,50.2,32.8,30.12,SSE,147,0.0,0.0,51,0.00,,FEW010,0.00,VWS V13.01,2013-02-03 00:40:00,
2013-02-02 19:45:00,50.0,33.1,30.12,SSE,147,0.0,0.0,52,0.00,,FEW010,0.00,VWS V13.01,2013-02-03 00:45:00,
2013-02-02 19:50:00,50.0,33.1,30.12,SSE,147,0.0,0.0,52,0.00,,FEW010,0.00,VWS V13.01,2013-02-03 00:50:00,
2013-02-02 19:55:00,49.8,32.9,30.12,SSE,147,0.0,0.0,52,0.00,,FEW010,0.00,VWS V13.01,2013-02-03 00:55:00,
2013-02-02 20:00:00,49.6,33.2,30.12,SSE,147,0.0,0.0,53,0.00,,FEW010,0.00,VWS V13.01,2013-02-03 01:00:00,
2013-02-02 20:05:00,49.5,33.1,30.12,SSE,147,0.0,0.0,53,0.00,,CLR,0.00,VWS V13.01,2013-02-03 01:05:00,
2013-02-02 20:11:00,49.3,32.9,30.12,SSE,147,0.0,0.0,53,0.00,,CLR,0.00,VWS V13.01,2013-02-03 01:11:00,
2013-02-02 20:16:00,49.1,33.2,30.12,SSE,147,0.0,0.0,54,0.00,,CLR,0.00,VWS V13.01,2013-02-03 01:16:00,
2013-02-02 20:21:00,49.1,33.7,30.12,SSE,147,0.0,0.0,55,0.00,,CLR,0.00,VWS V13.01,2013-02-03 01:21:00,
2013-02-02 20:26:00,48.7,33.3,30.12,SSE,147,0.0,0.0,55,0.00,,CLR,0.00,VWS V13.01,2013-02-03 01:26:00,
2013-02-02 20:31:00,48.6,33.6,30.12,SSE,147,0.0,0.0,56,0.00,,CLR,0.00,VWS V13.01,2013-02-03 01:31:00,
2013-02-02 20:36:00,48.6,33.6,30.12,SSE,147,0.0,0.0,56,0.00,,CLR,0.00,VWS V13.01,2013-02-03 01:36:00,
2013-02-02 20:41:00,48.4,33.4,30.12,SSE,147,0.0,0.0,56,0.00,,CLR,0.00,VWS V13.01,2013-02-03 01:41:00,
2013-02-02 20:47:00,48.6,33.6,30.12,SSE,147,0.0,0.0,56,0.00,,CLR,0.00,VWS V13.01,2013-02-03 01:47:00,
2013-02-02 20:52:00,48.4,33.4,30.12,SSE,147,0.0,0.0,56,0.00,,CLR,0.00,VWS V13.01,2013-02-03 01:52:00,
2013-02-02 20:57:00,48.2,33.3,30.12,SSE,147,0.0,0.0,56,0.00,,CLR,0.00,VWS V13.01,2013-02-03 01:57:00,
2013-02-02 21:02:00,48.2,33.7,30.12,SSE,147,0.0,0.0,57,0.00,,CLR,0.00,VWS V13.01,2013-02-03 02:02:00,
2013-02-02 21:07:00,47.8,33.4,30.12,SSE,147,0.0,0.0,57,0.00,,CLR,0.00,VWS V13.01,2013-02-03 02:07:00,
2013-02-02 21:13:00,47.7,33.2,30.12,SSE,147,0.0,0.0,57,0.00,,CLR,0.00,VWS V13.01,2013-02-03 02:13:00,
2013-02-02 21:18:00,47.7,33.2,30.12,SSE,147,0.0,0.0,57,0.00,,CLR,0.00,VWS V13.01,2013-02-03 02:18:00,
2013-02-02 21:23:00,47.7,33.2,30.12,SSE,147,0.0,0.0,57,0.00,,CLR,0.00,VWS V13.01,2013-02-03 02:23:00,
2013-02-02 21:28:00,47.5,33.5,30.12,SSE,147,0.0,0.0,58,0.00,,CLR,0.00,VWS V13.01,2013-02-03 02:28:00,
2013-02-02 21:33:00,47.5,33.5,30.12,SSE,147,0.0,0.0,58,0.00,,CLR,0.00,VWS V13.01,2013-02-03 02:33:00,
2013-02-02 21:38:00,47.5,33.5,30.12,SSE,147,0.0,0.0,58,0.00,,CLR,0.00,VWS V13.01,2013-02-03 02:38:00,
2013-02-02 21:44:00,47.5,33.9,30.12,SSE,147,0.0,0.0,59,0.00,,CLR,0.00,VWS V13.01,2013-02-03 02:44:00,
2013-02-02 21:49:00,47.3,33.7,30.12,SSE,147,0.0,0.0,59,0.00,,CLR,0.00,VWS V13.01,2013-02-03 02:49:00,
2013-02-02 21:54:00,47.3,33.7,30.12,SSE,147,0.0,0.0,59,0.00,,CLR,0.00,VWS V13.01,2013-02-03 02:54:00,
2013-02-02 22:00:00,47.3,33.7,30.12,SSE,147,0.0,0.0,59,0.00,,CLR,0.00,VWS V13.01,2013-02-03 03:00:00,
2013-02-02 22:06:00,47.3,34.1,30.12,SSE,147,0.0,0.0,60,0.00,,CLR,0.00,VWS V13.01,2013-02-03 03:06:00,
2013-02-02 22:11:00,47.3,34.1,30.12,SSE,147,0.0,0.0,60,0.00,,CLR,0.00,VWS V13.01,2013-02-03 03:11:00,
2013-02-02 22:16:00,47.3,34.5,30.12,SSE,147,0.0,0.0,61,0.00,,CLR,0.00,VWS V13.01,2013-02-03 03:16:00,
2013-02-02 22:21:00,47.3,34.5,30.12,SSE,147,0.0,0.0,61,0.00,,CLR,0.00,VWS V13.01,2013-02-03 03:21:00,
2013-02-02 22:26:00,47.1,34.4,30.12,SSE,147,0.0,0.0,61,0.00,,CLR,0.00,VWS V13.01,2013-02-03 03:26:00,
2013-02-02 22:31:00,47.1,34.8,30.12,SSE,147,0.0,0.0,62,0.00,,CLR,0.00,VWS V13.01,2013-02-03 03:31:00,
2013-02-02 22:37:00,47.1,34.8,30.12,SSE,147,0.0,0.0,62,0.00,,CLR,0.00,VWS V13.01,2013-02-03 03:37:00,
2013-02-02 22:43:00,47.1,34.8,30.12,SSE,147,0.0,0.0,62,0.00,,CLR,0.00,VWS V13.01,2013-02-03 03:43:00,
2013-02-02 22:48:00,47.3,35.4,30.12,SSE,147,0.0,0.0,63,0.00,,CLR,0.00,VWS V13.01,2013-02-03 03:48:00,
2013-02-02 22:53:00,47.3,35.4,30.12,SSE,147,0.0,0.0,63,0.00,,CLR,0.00,VWS V13.01,2013-02-03 03:53:00,
2013-02-02 22:58:00,47.3,35.4,30.12,SSE,147,0.0,0.0,63,0.00,,CLR,0.00,VWS V13.01,2013-02-03 03:58:00,
2013-02-02 23:03:00,47.3,35.4,30.12,SSE,147,0.0,0.0,63,0.00,,CLR,0.00,VWS V13.01,2013-02-03 04:03:00,
2013-02-02 23:08:00,47.1,35.6,30.12,SSE,147,0.0,0.0,64,0.00,,CLR,0.00,VWS V13.01,2013-02-03 04:08:00,
2013-02-02 23:13:00,47.1,35.6,30.12,SSE,147,0.0,0.0,64,0.00,,CLR,0.00,VWS V13.01,2013-02-03 04:13:00,
2013-02-02 23:18:00,46.9,35.4,30.12,SSE,147,0.0,0.0,64,0.00,,CLR,0.00,VWS V13.01,2013-02-03 04:18:00,
2013-02-02 23:23:00,46.9,35.4,30.12,SSE,147,0.0,0.0,64,0.00,,CLR,0.00,VWS V13.01,2013-02-03 04:23:00,
2013-02-02 23:28:00,46.8,35.6,30.12,SSE,147,0.0,0.0,65,0.00,,CLR,0.00,VWS V13.01,2013-02-03 04:28:00,
2013-02-02 23:33:00,46.8,35.6,30.12,SSE,147,0.0,0.0,65,0.00,,CLR,0.00,VWS V13.01,2013-02-03 04:33:00,
2013-02-02 23:38:00,46.8,35.6,30.12,SSE,147,0.0,0.0,65,0.00,,CLR,0.00,VWS V13.01,2013-02-03 04:38:00,
2013-02-02 23:43:00,46.6,35.5,30.12,SSE,147,0.0,0.0,65,0.00,,CLR,0.00,VWS V13.01,2013-02-03 04:43:00,
2013-02-02 23:48:00,46.6,35.5,30.12,SSE,147,0.0,0.0,65,0.00,,CLR,0.00,VWS V13.01,2013-02-03 04:48:00,
2013-02-02 23:53:00,46.6,35.8,30.12,SSE,147,0.0,0.0,66,0.00,,CLR,0.00,VWS V13.01,2013-02-03 04:53:00,
2013-02-02 23:58:00,46.6,35.8,30.12,SSE,147,0.0,0.0,66,0.00,,CLR,0.00,VWS V13.01,2013-02-03 04:58:00,